Regional Weather Roundup
Issued by NWS

Home | Current Version | Previous Version | Text Only | Print | Product List | Glossary Off
Versions: 1 2 3 4 5 6 7 8 9 10 11 12 13 14 15 16 17 18 19 20 21 22 23 24 25 26 27 28 29 30 31 32 33 34 35 36 37 38 39 40 41 42 43 44 45 46 47 48 49 50

143
ASUS43 KTOP 261608
RWRKS

WEATHER ROUNDUP FOR KANSAS
NATIONAL WEATHER SERVICE GOODLAND KS
1100 AM CDT THU APR 26 2018

NOTE:  "FAIR" INDICATES FEW OR NO CLOUDS BELOW 12,000 FEET WITH NO
SIGNIFICANT WEATHER AND/OR OBSTRUCTIONS TO VISIBILITY.

KSZ001>006-013>018-027>032-041>047-261700-
NORTHWEST KANSAS

CITY           SKY/WX    TMP DP  RH WIND       PRES   REMARKS
GOODLAND       CLOUDY    51  35  54 N32G41    30.08R
HAYS           MOSUNNY   59  42  53 W7        30.02R
HILL CITY      PTSUNNY   53  40  61 N15       30.03R
RUSSELL        PTSUNNY   59  44  57 NW9       30.01R
$$

KSZ061>065-074>080-084>089-261700-
SOUTHWEST KANSAS

CITY           SKY/WX    TMP DP  RH WIND       PRES   REMARKS
DODGE CITY     SUNNY     59  39  47 S8        29.98F
ELKHART        PTSUNNY   59  37  44 N37G44    30.01R
GARDEN CITY    MOSUNNY   54  37  52 N12       29.99R
GREAT BEND     SUNNY     57  43  59 S10       30.00S
LIBERAL        PTSUNNY   57  39  51 W12       29.98R
PRATT          SUNNY     58  42  57 S8        30.01F
$$

KSZ066>073-081>083-090>101-261700-
SOUTHEAST KANSAS

CITY           SKY/WX    TMP DP  RH WIND       PRES   REMARKS
CHANUTE        SUNNY     58  46  64 N5        30.05S
COFFEYVILLE    CLOUDY    53  46  77 NE5       30.05S
HUTCHINSON     SUNNY     57  43  59 S8        30.02S
MEDICINE LODGE   N/A     55  43  63 S9        30.01F
NEWTON         SUNNY     54  45  71 S7        30.03F
PARSONS        PTSUNNY   55  48  77 VRB5      30.06S
WICHITA INTL   MOSUNNY   56  45  66 VRB6      30.02F
WICHITA JABRA  SUNNY     54  43  66 SE5       30.02F
WICHITA MCCONL SUNNY     55  41  60 S5        30.02F
WINFIELD       SUNNY     54  47  77 VRB5      30.05F
$$

KSZ007>012-019>026-033>040-048>060-102>105-261700-
NORTHEAST KANSAS

CITY           SKY/WX    TMP DP  RH WIND       PRES   REMARKS
CONCORDIA      MOSUNNY   56  42  59 SW9       30.02R
EMPORIA        SUNNY     53  44  71 CALM      30.03F
LAWRENCE       SUNNY     56  43  61 W6        30.03S
MANHATTAN      SUNNY     55  44  66 W7        30.02S
MARYSVILLE     MOSUNNY   55  43  62 W8        30.01S
OLATHE IND     SUNNY     55  44  66 CALM      30.03F
OLATHE EXE     SUNNY     55  42  61 VRB3      30.02F
SALINA         CLOUDY    58  43  57 S6        30.03R
TOPEKA BILLARD MOSUNNY   54  44  69 W6        30.03S
TOPEKA FORBES  SUNNY     56  44  64 SW5       30.03R
$$




USA.gov is the U.S. government's official web portal to all federal, state and local government web resources and services.